CW2014 Weather Reports


time (UTC)temp
C
wind
direction
speed
KPH
gust
KPH
rain 1hr
cm
rain 24hr
cm
rain mn
cm
humidity
%
barometer
mb
20260906165528 33 303 3.2 11.3 0.00 0.00 0.00 35 1010.6
20260906165029 33 0 1.6 11.3 0.00 0.00 0.00 35 1010.5
20260906164546 33 189 1.6 12.9 0.00 0.00 0.00 35 1010.6
20260906164023 33 287 3.2 12.9 0.00 0.00 0.00 34 1010.6
20260906163523 33 313 1.6 8.0 0.00 0.00 0.00 36 1010.5
20260906163052 33 333 1.6 9.7 0.00 0.00 0.00 35 1010.5
20260906162526 33 207 3.2 9.7 0.00 0.00 0.00 36 1010.5
20260906162025 32 261 1.6 9.7 0.00 0.00 0.00 36 1010.6
20260906161547 32 263 3.2 8.0 0.00 0.00 0.00 36 1010.5
20260906161024 32 0 1.6 8.0 0.00 0.00 0.00 37 1010.6
20260906160525 32 268 1.6 8.0 0.00 0.00 0.00 37 1010.6
20260906160053 32 263 0.0 8.0 0.00 0.00 0.00 38 1010.6
20260906155523 32 271 0.0 8.0 0.00 0.00 0.00 38 1010.6
20260906155023 32 5 3.2 8.0 0.00 0.00 0.00 38 1010.7
20260906154547 32 0 0.0 6.4 0.00 0.00 0.00 39 1010.7
20260906154025 32 333 1.6 6.4 0.00 0.00 0.00 39 1010.7
20260906153525 31 226 0.0 6.4 0.00 0.00 0.00 40 1010.8
20260906153047 31 192 0.0 6.4 0.00 0.00 0.00 40 1010.9
20260906152526 31 192 1.6 6.4 0.00 0.00 0.00 42 1010.8
20260906152025 31 189 0.0 4.8 0.00 0.00 0.00 44 1010.8
20260906151552 31 148 1.6 6.4 0.00 0.00 0.00 45 1010.8
20260906151023 30 148 0.0 8.0 0.00 0.00 0.00 46 1010.8
20260906150523 30 169 1.6 8.0 0.00 0.00 0.00 48 1010.7
20260906150054 30 141 1.6 9.7 0.00 0.00 0.00 48 1010.7
20260906145524 30 154 1.6 9.7 0.00 0.00 0.00 48 1010.7
20260906145027 29 148 3.2 9.7 0.00 0.00 0.00 48 1010.8
20260906144607 29 0 3.2 8.0 0.00 0.00 0.00 48 1010.8
20260906144024 29 135 1.6 4.8 0.00 0.00 0.00 50 1010.7
20260906143523 29 107 1.6 4.8 0.00 0.00 0.00 49 1010.7
20260906143050 29 0 0.0 6.4 0.00 0.00 0.00 50 1010.7
20260906142524 28 0 1.6 6.4 0.00 0.00 0.00 51 1010.6
20260906142025 28 90 1.6 4.8 0.00 0.00 0.00 52 1010.6
20260906141547 28 0 0.0 4.8 0.00 0.00 0.00 53 1010.5
20260906141025 28 0 0.0 0.0 0.00 0.00 0.00 53 1010.3
20260906140525 27 0 0.0 0.0 0.00 0.00 0.00 53 1010.2
20260906140045 27 0 0.0 4.8 0.00 0.00 0.00 53 1010.0
20260906135526 27 0 0.0 6.4 0.00 0.00 0.00 54 1009.9
20260906135022 27 137 0.0 6.4 0.00 0.00 0.00 55 1009.9
20260906134551 26 159 0.0 6.4 0.00 0.00 0.00 55 1009.8
20260906134024 26 159 1.6 6.4 0.00 0.00 0.00 55 1009.9
20260906133522 26 159 1.6 6.4 0.00 0.00 0.00 56 1009.8
20260906133104 26 159 1.6 6.4 0.00 0.00 0.00 56 1009.7
20260906132525 26 159 1.6 6.4 0.00 0.00 0.00 57 1009.6
20260906132023 26 159 0.0 4.8 0.00 0.00 0.00 58 1009.7
20260906131547 26 159 1.6 6.4 0.00 0.00 0.00 59 1009.6
20260906131024 26 159 1.6 6.4 0.00 0.00 0.00 59 1009.5
20260906130527 26 0 1.6 6.4 0.00 0.00 0.00 59 1009.6
20260906130058 26 200 1.6 4.8 0.00 0.00 0.00 59 1009.7
20260906125524 26 200 0.0 3.2 0.00 0.00 0.00 58 1009.5
20260906125026 26 0 0.0 1.6 0.00 0.00 0.00 58 1009.5
20260906124543 26 0 0.0 3.2 0.00 0.00 0.00 57 1009.4
20260906124024 26 0 0.0 3.2 0.00 0.00 0.00 57 1009.5
20260906123523 26 200 0.0 3.2 0.00 0.00 0.00 57 1009.4
20260906123049 26 0 0.0 0.0 0.00 0.00 0.00 56 1009.4
20260906122524 26 0 0.0 0.0 0.00 0.00 0.00 55 1009.4
20260906122025 26 0 0.0 0.0 0.00 0.00 0.00 56 1009.4
20260906121547 26 0 0.0 0.0 0.00 0.00 0.00 55 1009.4
20260906121026 26 0 0.0 0.0 0.00 0.00 0.00 54 1009.4
20260906120526 26 0 0.0 0.0 0.00 0.00 0.00 54 1009.4
20260906120045 26 0 0.0 0.0 0.00 0.00 0.00 55 1009.4
20260906115523 26 0 0.0 0.0 0.00 0.00 0.00 54 1009.3
20260906115024 26 0 0.0 1.6 0.00 0.00 0.00 54 1009.3
20260906114556 26 0 0.0 1.6 0.00 0.00 0.00 54 1009.3
20260906114024 27 0 0.0 3.2 0.00 0.00 0.00 54 1009.4
20260906113524 27 0 0.0 3.2 0.00 0.00 0.00 54 1009.3
20260906113047 27 201 0.0 1.6 0.00 0.00 0.00 54 1009.3
20260906112524 27 0 0.0 1.6 0.00 0.00 0.00 54 1009.3
20260906112027 27 0 0.0 3.2 0.00 0.00 0.00 54 1009.4
20260906111546 27 201 0.0 3.2 0.00 0.00 0.00 53 1009.3
20260906111024 27 0 0.0 3.2 0.00 0.00 0.00 54 1009.2
20260906110524 27 201 0.0 3.2 0.00 0.00 0.00 53 1009.2
20260906110050 27 0 0.0 1.6 0.00 0.00 0.00 54 1009.1
20260906105523 27 0 0.0 3.2 0.00 0.00 0.00 54 1009.2
20260906105023 27 0 0.0 4.8 0.00 0.00 0.00 53 1009.2
20260906104557 27 201 1.6 4.8 0.00 0.00 0.00 53 1009.1
20260906104028 27 201 1.6 3.2 0.00 0.00 0.00 53 1009.2
20260906103523 27 201 0.0 3.2 0.00 0.00 0.00 53 1009.2
20260906103048 27 0 0.0 3.2 0.00 0.00 0.00 54 1009.1
20260906102527 27 0 0.0 3.2 0.00 0.00 0.00 53 1009.1
20260906102023 27 201 0.0 3.2 0.00 0.00 0.00 53 1009.1
20260906101546 27 0 0.0 1.6 0.00 0.00 0.00 53 1009.2
20260906101024 27 0 0.0 3.2 0.00 0.00 0.00 52 1009.0
20260906100525 27 0 0.0 3.2 0.00 0.00 0.00 52 1009.1
20260906100052 27 0 0.0 3.2 0.00 0.00 0.00 52 1009.0
20260906095526 27 201 0.0 3.2 0.00 0.00 0.00 52 1009.0
20260906095023 27 201 1.6 3.2 0.00 0.00 0.00 51 1009.0
20260906094602 27 0 0.0 0.0 0.00 0.00 0.00 50 1009.0
20260906094026 28 0 0.0 1.6 0.00 0.00 0.00 50 1009.0
20260906093525 28 0 0.0 3.2 0.00 0.00 0.00 49 1009.0
20260906093108 28 0 0.0 3.2 0.00 0.00 0.00 49 1009.0
20260906092524 28 0 0.0 3.2 0.00 0.00 0.00 49 1009.0
20260906092023 28 201 0.0 1.6 0.00 0.00 0.00 49 1009.0
20260906091554 28 0 0.0 1.6 0.00 0.00 0.00 49 1008.9
20260906091023 28 0 0.0 3.2 0.00 0.00 0.00 48 1009.0
20260906090530 28 0 0.0 3.2 0.00 0.00 0.00 47 1009.0
20260906090052 28 193 1.6 3.2 0.00 0.00 0.00 47 1009.1
20260906085527 28 0 0.0 1.6 0.00 0.00 0.00 47 1009.0
20260906085026 28 0 0.0 0.0 0.00 0.00 0.00 47 1009.0
20260906084547 28 0 0.0 0.0 0.00 0.00 0.00 45 1009.0
20260906084030 28 0 0.0 0.0 0.00 0.00 0.00 46 1009.2
20260906083524 28 0 0.0 0.0 0.00 0.00 0.00 45 1009.2
20260906083049 28 0 0.0 0.0 0.00 0.00 0.00 46 1009.1
20260906082523 28 0 0.0 0.0 0.00 0.00 0.00 46 1009.2
20260906082028 28 0 0.0 1.6 0.00 0.00 0.00 47 1009.3
20260906081549 28 0 0.0 1.6 0.00 0.00 0.00 46 1009.3
20260906081023 29 0 0.0 1.6 0.00 0.00 0.00 46 1009.4
20260906080524 29 192 0.0 1.6 0.00 0.00 0.00 46 1009.4
20260906080048 29 0 0.0 0.0 0.00 0.00 0.00 44 1009.4
20260906075525 29 0 0.0 0.0 0.00 0.00 0.00 44 1009.5
20260906075025 29 0 0.0 1.6 0.00 0.00 0.00 44 1009.5
20260906074548 29 0 0.0 3.2 0.00 0.00 0.00 45 1009.5
20260906074024 30 0 0.0 3.2 0.00 0.00 0.00 44 1009.5
20260906073525 30 0 0.0 0.0 0.00 0.00 0.00 43 1009.5
20260906073041 30 0 0.0 1.6 0.00 0.00 0.00 43 1009.5
20260906072526 30 0 0.0 1.6 0.00 0.00 0.00 43 1009.4
20260906072024 30 0 0.0 3.2 0.00 0.00 0.00 42 1009.5
20260906071548 30 0 0.0 3.2 0.00 0.00 0.00 41 1009.5
20260906071024 30 244 0.0 3.2 0.00 0.00 0.00 42 1009.5
20260906070524 30 0 0.0 1.6 0.00 0.00 0.00 42 1009.5
20260906070046 30 0 0.0 3.2 0.00 0.00 0.00 41 1009.7
20260906065525 30 0 0.0 3.2 0.00 0.00 0.00 41 1009.6
20260906065023 30 244 0.0 3.2 0.00 0.00 0.00 40 1009.6
20260906064540 30 244 0.0 1.6 0.00 0.00 0.00 41 1009.7
20260906064023 30 0 0.0 1.6 0.00 0.00 0.00 41 1009.6
20260906063527 30 0 0.0 1.6 0.00 0.00 0.00 41 1009.6
20260906063051 30 0 0.0 0.0 0.00 0.00 0.00 41 1009.7
20260906062528 31 0 0.0 3.2 0.00 0.00 0.00 40 1009.7
20260906062026 31 0 0.0 3.2 0.00 0.00 0.00 40 1009.7
20260906061548 31 0 0.0 3.2 0.00 0.00 0.00 39 1009.6
20260906061025 31 244 0.0 3.2 0.00 0.00 0.00 40 1009.7
20260906060528 31 265 0.0 3.2 0.00 0.00 0.00 39 1009.7
20260906060046 31 296 0.0 1.6 0.00 0.00 0.00 39 1009.7
20260906055524 31 0 0.0 1.6 0.00 0.00 0.00 39 1009.7
20260906055024 31 0 0.0 3.2 0.00 0.00 0.00 38 1009.7
20260906054550 31 0 0.0 3.2 0.00 0.00 0.00 37 1009.8
20260906054025 32 296 0.0 1.6 0.00 0.00 0.00 37 1009.7
20260906053524 32 0 0.0 1.6 0.00 0.00 0.00 36 1009.7
20260906053047 32 0 0.0 3.2 0.00 0.00 0.00 35 1009.7
20260906052522 32 0 0.0 3.2 0.00 0.00 0.00 35 1009.7
20260906052024 32 310 0.0 3.2 0.00 0.00 0.00 35 1009.7
20260906051556 32 310 0.0 3.2 0.00 0.00 0.00 35 1009.7
20260906051027 32 0 0.0 4.8 0.00 0.00 0.00 35 1009.7
20260906050525 32 0 0.0 4.8 0.00 0.00 0.00 34 1009.7
20260906050054 32 302 1.6 6.4 0.00 0.00 0.00 34 1009.8
20260906045525 32 302 1.6 6.4 0.00 0.00 0.00 34 1009.8
20260906045024 33 0 1.6 6.4 0.00 0.00 0.00 34 1009.8
20260906044556 33 321 1.6 6.4 0.00 0.00 0.00 33 1009.8
20260906044024 33 315 1.6 6.4 0.00 0.00 0.00 33 1009.7
20260906043523 33 360 1.6 8.0 0.00 0.00 0.00 33 1009.8
20260906043046 33 350 3.2 8.0 0.00 0.00 0.00 33 1009.7
20260906042523 33 326 3.2 8.0 0.00 0.00 0.00 33 1009.7
20260906042025 33 336 3.2 8.0 0.00 0.00 0.00 33 1009.8
20260906041544 33 324 3.2 8.0 0.00 0.00 0.00 32 1009.8
20260906041025 33 329 3.2 8.0 0.00 0.00 0.00 32 1009.8
20260906040523 33 338 3.2 8.0 0.00 0.00 0.00 32 1009.8
20260906040100 33 313 3.2 12.9 0.00 0.00 0.00 32 1009.8
20260906035523 33 344 3.2 12.9 0.00 0.00 0.00 31 1009.7
20260906035025 33 344 3.2 9.7 0.00 0.00 0.00 31 1009.7
20260906034546 33 340 3.2 9.7 0.00 0.00 0.00 31 1009.7
20260906034024 33 343 3.2 16.1 0.00 0.00 0.00 31 1009.7
20260906033526 34 309 4.8 16.1 0.00 0.00 0.00 31 1009.6
20260906033049 34 329 4.8 14.5 0.00 0.00 0.00 31 1009.5
20260906032525 34 344 3.2 14.5 0.00 0.00 0.00 31 1009.4
20260906032025 34 307 4.8 14.5 0.00 0.00 0.00 31 1009.4
20260906031546 34 338 1.6 12.9 0.00 0.00 0.00 31 1009.3
20260906031024 34 313 3.2 12.9 0.00 0.00 0.00 31 1009.2
20260906030526 34 313 3.2 12.9 0.00 0.00 0.00 31 1009.3
20260906030050 34 306 3.2 12.9 0.00 0.00 0.00 31 1009.2
20260906025523 34 302 3.2 12.9 0.00 0.00 0.00 30 1009.2
20260906025024 35 321 4.8 12.9 0.00 0.00 0.00 30 1009.2
20260906024550 35 321 3.2 11.3 0.00 0.00 0.00 29 1009.3
20260906024025 35 324 3.2 11.3 0.00 0.00 0.00 29 1009.3
20260906023525 35 317 3.2 11.3 0.00 0.00 0.00 29 1009.2
20260906023047 35 329 3.2 9.7 0.00 0.00 0.00 29 1009.2
20260906022528 35 321 4.8 12.9 0.00 0.00 0.00 29 1009.0
20260906022024 35 338 4.8 12.9 0.00 0.00 0.00 29 1008.9
20260906021546 35 348 4.8 16.1 0.00 0.00 0.00 29 1009.0
20260906021024 35 350 6.4 16.1 0.00 0.00 0.00 28 1009.0
20260906020524 35 336 6.4 16.1 0.00 0.00 0.00 28 1009.0
20260906020052 35 314 6.4 16.1 0.00 0.00 0.00 28 1008.9
20260906015522 35 313 6.4 16.1 0.00 0.00 0.00 28 1008.9
20260906015023 35 307 6.4 16.1 0.00 0.00 0.00 28 1009.0
20260906014618 35 311 6.4 16.1 0.00 0.00 0.00 28 1008.9
20260906014024 35 323 4.8 14.5 0.00 0.00 0.00 28 1009.0
20260906013525 36 342 4.8 19.3 0.00 0.00 0.00 28 1008.9
20260906013055 36 302 9.7 19.3 0.00 0.00 0.00 28 1008.9
20260906012524 36 331 6.4 19.3 0.00 0.00 0.00 28 1009.0
20260906012023 36 309 8.0 17.7 0.00 0.00 0.00 27 1009.1
20260906011549 36 304 8.0 17.7 0.00 0.00 0.00 27 1009.2
20260906011026 36 287 6.4 17.7 0.00 0.00 0.00 27 1009.1
20260906010525 36 301 4.8 17.7 0.00 0.00 0.00 27 1009.2
20260906010051 36 326 6.4 16.1 0.00 0.00 0.00 27 1009.1
20260906005525 37 302 6.4 24.1 0.00 0.00 0.00 27 1009.1
20260906005025 37 346 4.8 24.1 0.00 0.00 0.00 27 1009.0
20260906004544 37 315 8.0 17.7 0.00 0.00 0.00 27 1009.0
20260906004026 37 294 6.4 19.3 0.00 0.00 0.00 28 1008.9
20260906003524 37 314 8.0 19.3 0.00 0.00 0.00 27 1009.0
20260906003054 37 339 4.8 19.3 0.00 0.00 0.00 28 1009.0
20260906002523 37 317 8.0 19.3 0.00 0.00 0.00 28 1009.1
20260906002025 37 323 9.7 22.5 0.00 0.00 0.00 28 1009.0
20260906001548 37 315 6.4 22.5 0.00 0.00 0.00 28 1009.0
20260906001024 37 312 8.0 17.7 0.00 0.00 0.00 28 1008.9
20260906000525 37 5 4.8 17.7 0.00 0.00 0.00 29 1008.8
20260906000046 37 321 4.8 19.3 0.00 0.00 0.00 29 1008.8
20260905235524 37 344 8.0 19.3 0.00 0.00 0.00 29 1008.8
20260905235029 37 352 9.7 19.3 0.00 0.00 0.00 29 1008.7
20260905234542 37 324 8.0 16.1 0.00 0.00 0.00 29 1008.7
20260905234023 38 334 4.8 17.7 0.00 0.00 0.00 29 1008.6
20260905233530 38 323 4.8 17.7 0.00 0.00 0.00 29 1008.7
20260905233048 38 268 3.2 17.7 0.00 0.00 0.00 29 1008.8
20260905232525 38 279 4.8 17.7 0.00 0.00 0.00 29 1008.9
20260905232025 38 319 4.8 16.1 0.00 0.00 0.00 29 1008.8
20260905231546 38 352 6.4 16.1 0.00 0.00 0.00 29 1008.8
20260905231025 38 346 3.2 14.5 0.00 0.00 0.00 29 1008.8
20260905230525 38 30 4.8 14.5 0.00 0.00 0.00 29 1008.7
20260905230052 38 0 0.0 11.3 0.00 0.00 0.00 29 1008.8
20260905225523 38 267 3.2 11.3 0.00 0.00 0.00 29 1008.7
20260905225024 38 275 0.0 14.5 0.00 0.00 0.00 29 1008.8
20260905224546 38 301 4.8 14.5 0.00 0.00 0.00 29 1008.8
20260905224024 38 345 4.8 14.5 0.00 0.00 0.00 29 1008.9
20260905223525 38 331 3.2 19.3 0.00 0.00 0.00 29 1008.9
20260905223054 38 255 6.4 19.3 0.00 0.00 0.00 30 1009.0
20260905222524 38 300 9.7 17.7 0.00 0.00 0.00 29 1009.1
20260905222023 38 286 4.8 12.9 0.00 0.00 0.00 29 1009.1
20260905221607 38 166 1.6 11.3 0.00 0.00 0.00 29 1009.1
20260905221025 38 201 3.2 14.5 0.00 0.00 0.00 29 1009.2
20260905220527 37 224 1.6 19.3 0.00 0.00 0.00 30 1009.3
20260905220046 37 313 6.4 19.3 0.00 0.00 0.00 30 1009.4
20260905215524 38 305 3.2 14.5 0.00 0.00 0.00 29 1009.4
20260905215023 38 193 4.8 16.1 0.00 0.00 0.00 29 1009.4
20260905214555 38 199 6.4 16.1 0.00 0.00 0.00 29 1009.6
20260905214023 38 205 4.8 16.1 0.00 0.00 0.00 30 1009.7
20260905213528 37 329 4.8 12.9 0.00 0.00 0.00 30 1009.8
20260905213058 37 169 3.2 12.9 0.00 0.00 0.00 30 1009.8
20260905212525 38 342 3.2 12.9 0.00 0.00 0.00 30 1009.9
20260905212025 37 313 3.2 14.5 0.00 0.00 0.00 31 1009.9
20260905211548 37 316 3.2 14.5 0.00 0.00 0.00 30 1009.9
20260905211026 37 54 1.6 6.4 0.00 0.00 0.00 31 1010.0
20260905210526 37 17 3.2 6.4 0.00 0.00 0.00 30 1010.2
20260905210051 37 0 0.0 4.8 0.00 0.00 0.00 31 1010.3
20260905205524 37 0 0.0 8.0 0.00 0.00 0.00 30 1010.3
20260905205026 37 0 1.6 9.7 0.00 0.00 0.00 30 1010.4
20260905204549 37 213 3.2 9.7 0.00 0.00 0.00 30 1010.5
20260905204024 37 0 0.0 8.0 0.00 0.00 0.00 29 1010.6
20260905203524 37 0 0.0 12.9 0.00 0.00 0.00 30 1010.7
20260905203048 37 197 3.2 12.9 0.00 0.00 0.00 30 1010.8
20260905202524 37 229 3.2 14.5 0.00 0.00 0.00 30 1010.9
20260905202025 37 246 3.2 17.7 0.00 0.00 0.00 30 1010.9
20260905201601 37 247 6.4 17.7 0.00 0.00 0.00 29 1011.1
20260905201024 38 334 3.2 11.3 0.00 0.00 0.00 29 1011.1
20260905200524 38 0 3.2 14.5 0.00 0.00 0.00 29 1011.1
20260905200047 38 240 3.2 14.5 0.00 0.00 0.00 29 1011.1
20260905195527 38 260 3.2 14.5 0.00 0.00 0.00 29 1011.2
20260905195024 37 265 1.6 6.4 0.00 0.00 0.00 30 1011.2
20260905194551 37 145 1.6 12.9 0.00 0.00 0.00 30 1011.1
20260905194025 37 325 3.2 12.9 0.00 0.00 0.00 30 1011.2
20260905193524 37 294 4.8 16.1 0.00 0.00 0.00 30 1011.4
20260905193101 36 211 3.2 16.1 0.00 0.00 0.00 31 1011.5
20260905192524 36 47 1.6 11.3 0.00 0.00 0.00 30 1011.6
20260905192025 36 303 3.2 11.3 0.00 0.00 0.00 30 1011.7
20260905191546 37 261 1.6 11.3 0.00 0.00 0.00 30 1011.6
20260905191026 37 251 3.2 11.3 0.00 0.00 0.00 29 1011.8
20260905190525 37 301 1.6 12.9 0.00 0.00 0.00 29 1011.8
20260905190047 37 259 3.2 12.9 0.00 0.00 0.00 29 1012.0
20260905185526 36 267 1.6 14.5 0.00 0.00 0.00 29 1012.1
20260905185024 37 251 4.8 14.5 0.00 0.00 0.00 29 1012.1
20260905184556 37 0 3.2 11.3 0.00 0.00 0.00 28 1012.2
20260905184024 37 250 0.0 14.5 0.00 0.00 0.00 28 1012.2
20260905183527 37 131 3.2 14.5 0.00 0.00 0.00 29 1012.3
20260905183048 37 190 1.6 12.9 0.00 0.00 0.00 29 1012.3
20260905182531 37 231 4.8 11.3 0.00 0.00 0.00 29 1012.4
20260905182026 37 271 1.6 11.3 0.00 0.00 0.00 28 1012.4
20260905181608 37 192 3.2 9.7 0.00 0.00 0.00 28 1012.5
20260905181027 37 173 1.6 12.9 0.00 0.00 0.00 29 1012.5
20260905180522 37 188 3.2 12.9 0.00 0.00 0.00 29 1012.7
20260905180055 37 282 1.6 12.9 0.00 0.00 0.00 29 1012.6
20260905175525 36 190 3.2 14.5 0.00 0.00 0.00 29 1012.7
20260905175024 36 152 3.2 14.5 0.00 0.00 0.00 30 1012.5
20260905174554 36 130 0.0 8.0 0.00 0.00 0.00 31 1012.5
20260905174027 36 128 0.0 8.0 0.00 0.00 0.00 30 1012.7
20260905173525 36 102 0.0 8.0 0.00 0.00 0.00 31 1012.6
20260905173042 36 192 1.6 9.7 0.00 0.00 0.00 31 1012.6
20260905172523 35 123 3.2 9.7 0.00 0.00 0.00 32 1012.5
20260905172027 35 5 1.6 8.0 0.00 0.00 0.00 32 1012.5
20260905171550 35 71 0.0 11.3 0.00 0.00 0.00 31 1012.6
20260905171023 36 77 3.2 11.3 0.00 0.00 0.00 31 1012.7
20260905170523 35 0 0.0 8.0 0.00 0.00 0.00 32 1012.6
20260905170047 35 360 1.6 8.0 0.00 0.00 0.00 32 1012.7